Find Starlink 6249

NORAD ID: 56541 Int'l Des: 2023-065 Owner: SPXS Country: US Constellation: starlink operational
LEOCIRCULAR

現在のビュー

3D地球を読み込み中...

Starlink 6249について

説明を読み込み中...

次回通過

Passes for default location (London). Set your location on the main map for personalized predictions.

高度履歴

Loading altitude history...

軌道要素

1 56541U 23065AQ 26146.26728923 .00004294 00000-0 16539-3 0 9991
2 56541 43.0027 145.7236 0001201 261.2040 98.8676 15.27593777168334
Epoch: May 26, 2026 • Age: 6 hours

現在のステータス

高度 486.8 km
速度 7.62 km/s
衛星直下点 -18.90°S, 50.23°E
打ち上げ日 May 14, 2023
運用期間 3 years
タイプ internet

技術仕様

分類 Payload
質量 305.00 kg
乾燥質量 290.00 kg
総質量 305.00 kg
長さ 0.20 m
直径 2.80 m
スパン 9.00 m
形状 Box + pan
製造者 SPXS
バスタイプ Starlink
フェーズステータス In Orbit
所有者/国 SPXS/US

Most Searched